Погода в Новополоцке

Беларусь     55°32′07″N   28°38′43″E
темп.,
°C
ветер,
м/с
пор.,
м/с
влажн.,
%
обл.,
%
осадки,
мм/ч
давл.,
гПа
погр.,
м
19 сентября, вс
вс1900:00+6всв71585100 1.3 1015929
03:00+6всв71687100 1.9 1014900
06:00+6всв71594100 3.4 1013919
09:00+5всв71394100 6.3 1013945
12:00+5всв71395100 2.3 1014978
15:00+5всв61397100 4.4 1014934
18:00+5св61297100 3.8 10141003
21:00+4св61297100 5.3 1014924
20 сентября, пн
пн2000:00+4св61297100 1.4 1014870
03:00+3св61297100 3.5 1014738
06:00+4св51197100 1.0 1014808
09:00+3св51297100 1.6 1014696
12:00+4св51297100 0.4 1014624
15:00+4св51197100 0.7 1015700
18:00+3св51197100 0.6 1015735
21:00+3св51197100 0.8 1016717
21 сентября, вт
вт2100:00+4ссв41098100 0.3 1016728
03:00+4ссв4998100 0.4 1016752
06:00+4ссв4898100 0.1 1016692
09:00+3с4897100 0.5 1016608
12:00+3с4797100 0.2 1017660
15:00+4с4897100 0.3 1017777
18:00+4с4997100 0.4 1017831
21:00+4ссз4998100 1.3 1018771
22 сентября, ср
ср2200:00+4ссз4898100 0.2 1018759
03:00+4с4898100 0.5 1018693
06:00+4ссз4898100 0.4 1018640
09:00+4с4998100 0.5 1018484
12:00+5с4898100 0.1 1018495
15:00+6ссз4796100 0.2 1018751
18:00+5ссз3697100 0.5 1018846
21:00+5ссз3698100 2.3 1017877
23 сентября, чт
чт2300:00+5ссз2597100 1.8 1015718
03:00+5ссз2598100 2.6 1014259
06:00+5ссв1197100 1.1 101353
09:00+5вюв0195100 1.6 101278
12:00+6ю1292100 0.3 1012255
15:00+6ююз2492100 0.4 1010394
18:00+5ю2597100 1.0 1009336
21:00+5ююв4897100 1.3 1008346